Location: Immenstaad
(47.6659°N, 9.3662°E)
Time: 03:34:49
(UTC+00:00)

Daily predictions for brighter satellites

Satellite Brightness Start Highest point End
(mag) Time Altitude Azimuth Time Altitude Azimuth Time Altitude Azimuth
Geosat 4.4 00:05:21 42° SW 00:05:42 43° WSW 00:10:31 10° NW
Cosmos 2360 Rocket 4.0 00:05:48 10° WNW 00:09:05 16° W 00:09:32 16° WSW
Nadezhda 1 Rocket 4.0 00:02:50 10° NNW 00:09:15 76° W 00:11:32 42° S
Cosmos 1862 Rocket 3.9 00:07:41 10° NNW 00:11:56 49° W 00:12:10 48° WSW
Cosmos 1666 2.6 00:12:13 85° W 00:12:14 85° W 00:16:07 10° N
Cosmos 1980 3.7 00:07:02 10° NNW 00:12:44 79° ENE 00:15:18 34° SE
MOZ.5/SAFIR/RUBIN 5/SL-8 4.3 00:12:38 36° SE 00:14:22 57° ENE 00:19:00 10° N
Cosmos 1378 3.5 00:10:48 10° N 00:14:27 54° ENE 00:14:41 53° E
Resurs 1-4 Rocket 3.4 00:12:26 10° NNE 00:17:09 31° E 00:19:09 24° SE
USA 229 DEB 3.9 00:10:22 10° NW 00:17:36 62° WSW 00:21:08 34° S
USA 229 3.9 00:10:28 10° NW 00:17:42 63° WSW 00:21:16 33° S
Intercosmos 25 Rocket 3.6 00:18:31 49° ESE 00:18:45 50° E 00:22:59 10° NNE
Lacrosse 5 3.1 00:21:12 27° SE 00:21:20 27° SE 00:25:33 10° ENE
Cosmos 2084 Rocket 4.0 00:19:58 10° NW 00:24:07 56° NE 00:27:01 19° ESE
Cosmos 1703 Rocket 3.5 00:21:39 10° N 00:26:02 82° E 00:26:49 59° SSE
ADEOS Rocket 4.1 00:21:23 11° SE 00:26:12 35° ENE 00:31:10 10° N
Meteor 1-14 Rocket 4.4 00:26:17 40° SW 00:28:04 59° WNW 00:33:36 10° N
Cosmos 2297 Rocket 2.3 00:31:41 42° S 00:33:29 64° ESE 00:39:05 10° NNE
Cosmos 1536 3.1 00:35:32 50° SE 00:36:08 57° E 00:40:05 10° NNE
Cosmos 2237 Rocket 2.1 00:31:21 10° NNW 00:37:02 75° WSW 00:39:17 38° S
NOSS 3-1 (A) 4.3 00:30:37 10° NW 00:37:57 52° WSW 00:41:59 30° S
Meteor 1-13 Rocket 4.2 00:32:09 10° NNW 00:38:02 90° WSW 00:40:27 37° S
CZ-4 R/B 3.9 00:33:07 10° NNE 00:38:06 85° ESE 00:39:36 47° S
ARGOS Delta rocket 3.7 00:34:03 10° N 00:38:53 85° WNW 00:40:01 52° SSW
Cosmos 2181 Rocket 4.1 00:34:14 10° N 00:40:39 75° E 00:44:07 29° SSE
BREEZE-M DEB (TANK) 3.0 00:34:20 10° WSW 00:40:54 67° S 00:43:57 10° E
Cosmos 2227 Rocket 2.4 00:42:17 38° S 00:44:16 59° ESE 00:49:49 10° NNE
Cosmos 909 Rocket 4.5 00:41:37 34° S 00:44:22 57° ESE 00:51:44 10° NE
EO 1 Del DPAF 3.8 00:42:02 10° N 00:45:34 41° WNW 00:45:57 40° W
Cosmos 2242 Rocket 3.7 00:45:08 10° NNW 00:49:28 58° W 00:50:12 50° SW
TSX-5 3.8 00:50:00 56° WSW 00:50:36 68° WNW 00:55:02 10° NNE
Cosmos 1544 2.9 00:52:00 72° S 00:52:20 86° E 00:55:59 10° N
ASTEX 1 3.3 00:51:42 44° S 00:53:14 77° W 00:58:10 10° N
NOSS 2-2 (D) 4.4 00:48:16 10° NW 00:53:33 89° SW 01:01:01 10° SE
CZ-2D R/B 2.4 00:49:22 10° NNE 00:54:43 62° ESE 00:57:06 33° S
CZ-4C R/B 4.0 00:50:45 10° NW 00:57:22 46° NE 01:05:07 10° ESE
ADEOS II 3.3 00:53:14 10° NNE 00:57:59 33° E 01:01:01 19° SSE
COSMOS 2428 4.2 00:56:04 10° NW 01:00:03 20° W 01:00:22 20° WSW
SL-16 R/B 2.5 00:55:04 10° NNW 01:00:43 65° ENE 01:06:21 10° SE
Meteor 1-23 Rocket 4.3 00:55:55 10° N 01:01:37 82° ENE 01:04:59 26° SSE
Cosmos 1269 Rocket 4.2 01:00:30 36° SW 01:02:34 61° WNW 01:07:49 10° NNE
Cosmos 2219 Rocket 4.0 01:03:23 10° WNW 01:06:05 14° W 01:06:11 14° W
Timation 1 Rocket 4.4 01:06:26 33° S 01:09:11 70° ESE 01:15:10 10° NNE
Cosmos 2263 Rocket 4.2 01:07:44 10° SE 01:11:38 19° E 01:15:35 10° NE
Cosmos 1869 Rocket 3.7 01:11:10 42° SW 01:12:31 66° WNW 01:17:00 10° N
Cosmos 1743 2.6 01:19:32 48° SSW 01:20:30 76° W 01:24:20 10° N
Cosmos 1340 Rocket 4.2 01:20:53 23° W 01:21:46 25° WNW 01:25:05 10° NNW
Cosmos 1992 Rocket 4.0 01:17:41 10° NNW 01:22:53 64° WSW 01:25:38 28° S
Meteor 1-28 Rocket 4.3 01:21:44 14° SE 01:24:37 42° ENE 01:28:09 10° N
Helios 1A 4.1 01:27:31 26° WSW 01:27:56 27° W 01:31:32 10° NW
Cosmos 2221 Rocket 3.6 01:24:28 10° N 01:29:02 87° ENE 01:31:42 25° S
Okean 3 4.2 01:25:12 10° NNW 01:29:10 38° W 01:30:10 33° WSW
Okean 1-7 4.4 01:26:37 10° NW 01:29:55 22° W 01:30:27 22° W
Cosmos 2219 3.5 01:28:52 27° SW 01:31:58 60° WNW 01:37:41 10° NNE
Timation 2 Rocket 3.9 01:31:17 28° SW 01:34:37 81° WNW 01:40:47 10° NNE
Cosmos 1975 3.5 01:34:17 22° SSE 01:36:37 49° E 01:40:36 10° NNE
Cosmos 2344 4.4 01:34:47 16° S 01:40:07 40° ESE 01:47:07 10° NE
MINOTAUR 4 R/B 4.1 01:38:26 24° SSE 01:40:29 78° ENE 01:44:05 10° N
Cosmos 1461 4.4 01:39:45 19° SSE 01:42:11 31° ESE 01:46:07 10° NE
UNK 4.2 01:41:38 29° SSW 01:43:30 44° W 01:47:59 10° NNW
Cosmos 1238 Rocket 3.3 01:43:35 22° SSE 01:45:08 41° E 01:48:22 10° NNE
Cosmos 1707 3.9 01:41:54 10° N 01:45:34 41° ENE 01:49:12 10° SSE
Cosmos 1674 Rocket 3.7 01:42:19 10° N 01:46:45 77° E 01:50:25 15° SSE
Helios 1B rocket 2.5 01:43:49 10° N 01:47:54 64° WNW 01:49:49 29° SW
SL-16 R/B 2.9 01:44:52 24° SSW 01:48:17 44° W 01:54:12 10° NNW
IDEFIX/ARIANE 42P 3.2 01:43:54 10° NNE 01:48:58 51° E 01:53:13 14° S
Cosmos 2184 Rocket 4.0 01:45:03 24° SSW 01:49:01 70° W 01:55:19 10° N
ATLAS 5 CENTAUR R/B 3.6 01:44:45 10° WNW 01:49:09 22° WSW 01:50:05 21° SW
Cosmos 2082 3.7 01:48:53 24° SSW 01:52:24 83° WNW 01:58:11 10° NNE
Meteor 1-29 2.8 01:51:40 10° NNE 01:54:59 82° ESE 01:56:32 29° S
Cosmos 1295 Rocket 4.5 01:50:56 17° S 01:55:47 83° E 02:01:56 10° N
Cosmos 2154 Rocket 4.0 01:51:27 19° S 01:56:04 87° WNW 02:02:19 10° N
Resurs 1-4 Rocket 2.8 01:52:06 10° N 01:57:04 41° WNW 02:00:13 21° SW
Cosmos 2251 Rocket 3.6 01:54:37 24° SSW 01:57:50 72° WNW 02:03:09 10° NNE
Cosmos 1842 3.3 01:55:35 10° NNW 01:59:22 57° W 02:01:27 24° SSW
Lacrosse 5 2.0 02:00:23 20° WSW 02:03:56 73° NW 02:09:02 10° NE
Cosmos 1378 Rocket 3.5 02:03:43 10° NNW 02:08:07 75° W 02:11:51 14° S
USA 267 4.4 02:03:37 10° E 02:09:46 45° NNE 02:15:55 10° NW
Meteor 1-21 4.2 02:04:35 10° NNW 02:10:22 76° W 02:16:09 10° S
ADEOS Rocket 3.4 02:08:20 19° SSW 02:11:46 37° W 02:16:51 10° NNW
MSX 4.2 02:06:31 10° NNE 02:12:13 61° ESE 02:17:53 10° S
Cosmos 2074 Rocket 4.5 02:09:07 19° SW 02:13:20 45° WNW 02:19:18 10° N
NPP 4.5 02:11:02 10° N 02:15:57 37° WNW 02:19:39 16° SW
Cosmos 1908 Rocket 3.6 02:13:40 14° S 02:17:21 76° E 02:21:42 10° NNE
Cosmos 2297 Rocket 3.7 02:13:29 11° WSW 02:17:59 27° NW 02:22:46 10° N
Cosmos 1140 Rocket 3.7 02:14:51 15° SSW 02:19:11 73° ESE 02:24:27 10° NNE
Cosmos 1340 3.9 02:15:52 10° N 02:19:28 42° ENE 02:23:01 10° SSE
Cosmos 2237 Rocket 4.0 02:18:04 10° WNW 02:20:05 12° W 02:21:04 11° WSW
Cosmos 1356 Rocket 3.3 02:20:09 17° SSW 02:23:16 81° WNW 02:27:17 10° N
SL-8 R/B 4.3 02:21:22 18° SSW 02:24:32 42° SSE 02:29:05 10° E
Cosmos 1626 4.1 02:21:17 10° N 02:24:33 29° ENE 02:27:49 10° SE
Cosmos 1733 Rocket 3.9 02:22:03 18° SW 02:24:48 35° WNW 02:28:55 10° N
CZ-4B R/B 4.5 02:20:21 10° NNE 02:25:00 41° E 02:29:30 10° S
DELTA 2 DEB (DPAF) 4.4 02:22:42 13° S 02:26:32 47° W 02:30:51 10° NNW
NOSS 3-3 (A) 4.2 02:22:16 14° SSW 02:27:06 60° ESE 02:33:31 10° NE
NOSS 3-3 (C) 4.2 02:22:23 14° SSW 02:27:13 60° ESE 02:33:36 10° NE
Cosmos 1603 3.8 02:22:10 10° NNW 02:27:48 79° ENE 02:33:26 10° SSE
ARIANE 5 R/B 3.2 02:23:02 10° NNE 02:28:06 54° E 02:33:12 10° S
Cosmos 2227 Rocket 3.5 02:24:06 11° WSW 02:28:41 28° NW 02:33:34 10° NNE
Cosmos 1674 3.3 02:25:51 10° N 02:29:39 58° ENE 02:33:25 10° SSE
Cosmos 44 3.4 02:27:49 10° NW 02:33:08 83° SW 02:38:06 10° SSE
SL-8 Rocket 4.2 02:27:24 10° S 02:33:34 76° E 02:39:44 10° NNE
CZ-2D R/B 3.6 02:30:12 10° N 02:34:21 23° WNW 02:38:25 10° WSW
Cosmos 2366 rocket 4.4 02:29:55 10° S 02:36:11 66° E 02:42:29 10° NNE
ADEOS II 2.9 02:32:51 10° N 02:37:42 38° WNW 02:41:58 13° SW
EP 1 4.4 02:35:34 17° SW 02:37:49 82° SE 02:40:30 10° NE
Cosmos 1025 Rocket 4.5 02:35:44 10° N 02:39:49 39° ENE 02:43:53 10° SE
Okean 2 4.2 02:37:39 10° NNW 02:41:27 34° W 02:44:58 11° SSW
IRS-1D 4.0 02:38:17 10° N 02:42:58 43° WNW 02:47:18 12° SW
SL-16 R/B 3.4 02:40:04 10° NW 02:44:20 22° W 02:48:30 10° SSW
IRS-1C 4.2 02:39:55 10° NNE 02:45:18 89° W 02:50:38 10° SSW
Cosmos 2227 4.3 02:39:56 11° SSW 02:45:26 83° ESE 02:51:05 10° NNE
CZ-4C R/B 3.0 02:39:10 10° NW 02:46:21 62° WSW 02:54:38 10° SSE
CZ-4C R/B 3.7 02:42:36 10° S 02:46:32 49° W 02:50:42 10° NNW
CZ-2D R/B 3.8 02:46:34 10° NNE 02:50:31 61° ESE 02:54:32 10° S
Meteor 2-20 4.5 02:48:36 10° NNW 02:54:46 81° W 03:00:55 10° S
Cosmos 2263 Rocket 2.3 02:49:22 11° SSW 02:54:56 74° WNW 03:00:40 10° NNE
Cosmos 676 Rocket 4.2 02:52:16 10° SSW 02:57:35 77° ESE 03:02:57 10° NNE
USA 281 4.1 02:51:50 10° SE 02:58:13 56° ENE 03:04:37 10° NNW
Cosmos 2341 Rocket 4.2 02:52:34 10° SSW 02:58:44 59° WNW 03:04:54 10° N
Cosmos 1782 Rocket 3.6 02:55:31 10° SSW 02:59:50 71° W 03:04:14 10° N
Cosmos 2218 Rocket 4.1 02:55:07 10° S 03:01:31 82° W 03:07:53 10° N
Sich 1 Rocket 4.2 02:57:15 10° S 03:01:33 57° E 03:05:54 10° NNE
CZ-2C R/B 4.1 02:58:49 10° NNE 03:02:19 38° E 03:05:49 10° SSE
Cosmos 1727 Rocket 4.2 02:58:48 10° N 03:05:04 81° E 03:11:20 10° S
Cosmos 407 Rocket 4.1 03:00:36 10° SW 03:05:40 45° WNW 03:10:45 10° NNE
GEOS 3 Rocket 3.8 03:03:25 10° SSE 03:08:37 51° SW 03:13:48 10° NW
Cosmos 1805 3.2 03:07:12 10° S 03:11:05 88° W 03:15:01 10° N
Cosmos 1818 4.0 03:07:16 10° NW 03:12:46 70° NE 03:18:13 10° SE
ATLAS CENTAUR R/B 1.2 03:09:40 10° SW 03:13:26 85° SE 03:17:27 10° NE
ALOS 3.2 03:09:03 10° NNE 03:13:36 49° E 03:18:07 10° S
KORONAS-FOTON 4.3 03:10:25 10° NNW 03:14:08 41° W 03:17:49 10° SSW
USA 215 3.6 03:11:34 10° ENE 03:18:03 61° SE 03:24:30 10° SW
